STARLINK-30971, 58443

Orbit data source: Space-Track

STARLINK-30971, 58443 is a payload satellite owned by SpaceX/Seattle (US) in LEO that was launched on Tue, 28 Nov 2023 UTC via an FALCON 9 launch vehicle from the Air Force Eastern Test Range (AFETR). Payload-class satellites include a variety of spacecraft equipped with specific instruments for various scientific and technological missions. These include communications satellites like Starlink; space stations such as the ISS; scientific satellites like the Hubble; Earth observation satellites from companies like Planet Labs, Umbra, and HawkEye 360; GPS; miniature CubeSats for education and research; and military/defense satellites.

Loading next visibility...
Identifier
58443, 2023-183G
Orbit
LEO
Country
Flag of USUS
Related business
Manufacturer
SpaceX/Seattle
Mission
Operational Commercial Communications
Bus & Motor
STARLINK V2M, Unknown motor
Mass
730 kg wet, ~700 kg dry
Launch date (UTC)
2023-11-28 (3 years ago)
Launch vehicle
FALCON 9
Launch site
Air Force Eastern Test Range (AFETR)
Object type
Payload
Rocket body
Debris
Shape & HBR
Box + 2 Pan, 17.7 m
Radar Cross Section
33.884 m², Large (>1 m²)

Expand to show TLE details & history
Last TLE update: 2 days ago

TLE from 2 days ago
0 STARLINK-30971
1 58443U 23183G   26171.30476948 -.00000498  00000-0 -85718-5 0  9996
2 58443  43.0026 182.4703 0001707 274.3645  85.7012 15.27580365142420
Epoch: 2026-06-20T07:18Z
TLE epoch observation values (Epoch: 2026-06-20T07:18:52.083Z)
Latitude
0.00003°
Longitude
164.23201°
Altitude
482.736 km
Speed
7.626 km/s
True Right ascension
12h 09m 52s
True Declination
0° 00' 00"
Sunlit
Object was in daylight at epoch
Visualization orbit readout
Latitude
Unknown
Longitude
Unknown
Altitude
Unknown
Speed
Unknown
Apparent Right ascension
Unknown
Apparent Declination
Unknown
Sunlit
N/A
Visualization observer readout
Local Sidereal Time
23:08:20
Azimuth
Unknown
Elevation
Unknown
Doppler factor
Unknown
Orbital elements
Apogee altitude
486.164 km
Perigee altitude
483.821 km
Semi-major axis
6,863.13 km
Eccentricity
0.00017
Inclination
43.0026°
RAAN
182.4703°
Arg. of periapsis
274.3645°
True anomaly
85.72071°
Mean anomaly
85.7012°
Eccentric anomaly
85.71095°
Mean motion
3.81733 °/min
Orbital period
94.31 mins
BSTAR
-0.0000085718
Loading maneuver chart data...
Computing Atmospheric mass density...
Loading historical data...
Loading historical data...
Loading historical data...
Loading historical data...
Loading historical data...
Loading historical data...
Loading historical data...

Documentation

Showing up to 5 results
|